sat.trackr.live / text

‹ back to catalog

STARLINK-33788

NORAD 63589 · 2025-076W

PAYLOAD ACTIVE UNKNOWN

§ Identity

Operator
Country
US
Launch date
2025-04-14
Launch site
AFETR
Launch vehicle
Mass (kg)
RCS (m²)

Purposes: comms

External: N2YO · Heavens-Above · Gunter

§ Orbital elements

Epoch: 2026-09-20T09:12:54.755712Z

Period
94.27 min
Inclination
43.0019°
Eccentricity
0.0001398
Mean motion
15.27592621 rev/d
Perigee alt
482.1 km
Apogee alt
484.0 km
Semi-major
6,861.1 km
B*
5.1281e-4
RAAN
302.3993°
Arg perigee
269.0189°
Mean anomaly
91.0503°
Rev number
8,160

§ Raw data

STARLINK-337881 63589U 25076W   26263.38396708  .00013881  00000+0  51281-3 0  99942 63589  43.0019 302.3993 0001398 269.0189  91.0503 15.27592621 81608

JSON: /api/v1/satellites/63589 · /tle

For live sub-satellite position, see the globe view (requires WebGL).

§ Visibility from observer

Set your observer location to see the next 7 days of passes ≥ 10°. The values pass through the URL so the page stays shareable.

No JS? Fill the form by hand. The geolocation button needs JavaScript.